Location: Asbacherhof
(48.8543°N, 10.7903°E)
Time: 17:35:57
(UTC+00:00)

Cosmos 1603 - Pass Details

Date: 26 May 2022
Orbit: 829 x 861 km, 71.0° (Epoch: 06 July)

Event Time Altitude Azimuth Distance (km) Brightness Sun altitude
Exits shadow 02:19:12 - 191° (S) 2,802 5.9 -8.8°
Reaches altitude 10° 02:20:10 10° 189° (S) 2,441 5.6 -8.7°
Maximum altitude 02:25:39 58° 112° (ESE) 975 4.2 -8.0°
Drops below altitude 10° 02:31:13 10° 34° (NE) 2,478 7.8 -7.4°
Sets 02:33:42 0° 31° (NNE) 3,422 8.7 -7.1°
